When you browse on this site, cookies collect data to enhance your experience and personalize the content and advertising you see.
Visit our Privacy Policy to learn more. By continuing to use the site, you agree to this use of cookies and data.
  • In Portugal
  • List of Countries
  • For 7 days
  • Water Temperature
  • Satellite Maps
  • Weather Map
  • Weather Widgets
  • user-avatar
    Login

    Hourly Weather Ravda

    Today, 13 December, Thursday

    Time Temperature Precipitation Wind Pressure Humidity
    00:00 +1°C° 0 mm 3 mps 765 mmHg 80%
    01:00 0°C° 0 mm 4 mps 765 mmHg 79%
    02:00 0°C° 0 mm 4 mps 765 mmHg 77%
    03:00 0°C° 0 mm 4 mps 765 mmHg 77%
    04:00 -1°C° 0 mm 4 mps 765 mmHg 76%
    05:00 -1°C° 0 mm 4 mps 765 mmHg 76%
    06:00 -1°C° 0 mm 4 mps 765 mmHg 76%
    07:00 -1°C° 0 mm 4 mps 765 mmHg 76%
    08:00 -1°C° 0 mm 4 mps 765 mmHg 76%
    09:00 +1°C° 0 mm 4 mps 765 mmHg 69%
    10:00 +3°C° 0 mm 4 mps 765 mmHg 62%
    11:00 +5°C° 0 mm 4 mps 765 mmHg 55%
    12:00 +5°C° 0 mm 4 mps 765 mmHg 53%
    13:00 +6°C° 0 mm 4 mps 765 mmHg 52%
    14:00 +7°C° 0 mm 3 mps 765 mmHg 49%
    15:00 +5°C° 0 mm 3 mps 765 mmHg 54%
    16:00 +4°C° 0 mm 3 mps 765 mmHg 60%
    17:00 +4°C° 0 mm 2 mps 765 mmHg 65%
    18:00 +3°C° 0 mm 2 mps 765 mmHg 66%
    19:00 +3°C° 0 mm 2 mps 765 mmHg 68%
    20:00 +3°C° 0 mm 2 mps 765 mmHg 69%
    21:00 +2°C° 0 mm 2 mps 765 mmHg 70%
    22:00 +3°C° 0 mm 1 mps 764 mmHg 70%
    23:00 +3°C° 0 mm 1 mps 764 mmHg 71%

    Tomorrow, 14 December, Friday

    Time Temperature Precipitation Wind Pressure Humidity
    00:00 +3°C° 0 mm 1 mps 765 mmHg 72%
    01:00 +3°C° 0 mm 1 mps 765 mmHg 73%
    02:00 +3°C° 0 mm 1 mps 765 mmHg 74%
    03:00 +3°C° 0 mm 1 mps 765 mmHg 75%
    04:00 +3°C° 0 mm 1 mps 765 mmHg 77%
    05:00 +3°C° 0 mm 1 mps 764 mmHg 79%
    06:00 +4°C° 0 mm 1 mps 765 mmHg 80%
    07:00 +4°C° 0 mm 1 mps 765 mmHg 81%
    08:00 +4°C° 0 mm 1 mps 765 mmHg 82%
    09:00 +5°C° 0.2 mm 1 mps 765 mmHg 82%
    10:00 +4°C° 0.2 mm 2 mps 765 mmHg 82%
    11:00 +5°C° 0.2 mm 2 mps 765 mmHg 82%
    12:00 +5°C° 0.2 mm 2 mps 765 mmHg 84%
    13:00 +5°C° 0.2 mm 2 mps 765 mmHg 86%
    14:00 +6°C° 0.2 mm 2 mps 765 mmHg 88%
    15:00 +5°C° 0.1 mm 2 mps 765 mmHg 90%
    16:00 +4°C° 0.1 mm 3 mps 765 mmHg 92%
    17:00 +4°C° 0.1 mm 3 mps 765 mmHg 94%
    18:00 +4°C° 0.1 mm 3 mps 765 mmHg 94%
    19:00 +4°C° 0.1 mm 3 mps 765 mmHg 94%
    20:00 +4°C° 0.1 mm 3 mps 765 mmHg 94%
    21:00 +5°C° 0.3 mm 3 mps 765 mmHg 95%
    22:00 +5°C° 0.3 mm 3 mps 765 mmHg 95%
    23:00 +5°C° 0.3 mm 3 mps 765 mmHg 96%

    Day after tomorrow, 15 December, Saturday

    Time Temperature Precipitation Wind Pressure Humidity
    00:00 +5°C° 0.3 mm 3 mps 764 mmHg 96%
    01:00 +5°C° 0.3 mm 3 mps 764 mmHg 96%
    02:00 +7°C° 0.3 mm 3 mps 764 mmHg 97%
    03:00 +7°C° 0.4 mm 3 mps 764 mmHg 97%
    04:00 +7°C° 0.4 mm 3 mps 763 mmHg 97%
    05:00 +7°C° 0.4 mm 2 mps 763 mmHg 97%
    06:00 +8°C° 0.2 mm 2 mps 763 mmHg 97%
    07:00 +8°C° 0.2 mm 2 mps 763 mmHg 97%
    08:00 +8°C° 0.2 mm 3 mps 763 mmHg 97%
    09:00 +9°C° 0.1 mm 3 mps 763 mmHg 95%
    10:00 +9°C° 0.1 mm 3 mps 763 mmHg 94%
    11:00 +10°C° 0.1 mm 3 mps 764 mmHg 93%
    12:00 +10°C° 0.1 mm 3 mps 763 mmHg 93%
    13:00 +10°C° 0.1 mm 2 mps 763 mmHg 93%
    14:00 +12°C° 0.1 mm 2 mps 763 mmHg 93%
    15:00 +10°C° 0.2 mm 2 mps 763 mmHg 94%
    16:00 +10°C° 0.2 mm 3 mps 763 mmHg 94%
    17:00 +10°C° 0.2 mm 3 mps 762 mmHg 95%
    18:00 +10°C° 0.1 mm 3 mps 763 mmHg 95%
    19:00 +10°C° 0.1 mm 3 mps 763 mmHg 95%
    20:00 +10°C° 0.1 mm 3 mps 763 mmHg 95%
    21:00 +9°C° 0 mm 3 mps 763 mmHg 94%
    22:00 +9°C° 0 mm 3 mps 762 mmHg 94%
    23:00 +9°C° 0 mm 3 mps 762 mmHg 93%

    16 December, Sunday

    Time Temperature Precipitation Wind Pressure Humidity
    00:00 +9°C° 0 mm 3 mps 762 mmHg 93%
    01:00 +9°C° 0 mm 3 mps 762 mmHg 93%
    02:00 +9°C° 0 mm 3 mps 762 mmHg 93%
    03:00 +9°C° 0.3 mm 2 mps 762 mmHg 93%
    04:00 +9°C° 0.3 mm 2 mps 761 mmHg 94%
    05:00 +9°C° 0.3 mm 2 mps 761 mmHg 95%
    06:00 +9°C° 0.5 mm 3 mps 761 mmHg 96%
    07:00 +9°C° 0.5 mm 3 mps 761 mmHg 96%
    08:00 +9°C° 0.5 mm 3 mps 761 mmHg 97%
    09:00 +10°C° 0.2 mm 4 mps 761 mmHg 96%
    10:00 +10°C° 0.2 mm 4 mps 761 mmHg 94%
    11:00 +11°C° 0.2 mm 4 mps 761 mmHg 93%
    12:00 +11°C° 0 mm 4 mps 761 mmHg 92%
    13:00 +11°C° 0 mm 4 mps 761 mmHg 91%
    14:00 +12°C° 0 mm 4 mps 760 mmHg 90%
    15:00 +10°C° 0.1 mm 5 mps 761 mmHg 92%
    16:00 +10°C° 0.1 mm 5 mps 761 mmHg 93%
    17:00 +9°C° 0.1 mm 5 mps 761 mmHg 94%
    18:00 +9°C° 0.1 mm 6 mps 761 mmHg 94%
    19:00 +9°C° 0.1 mm 6 mps 762 mmHg 94%
    20:00 +9°C° 0.1 mm 6 mps 762 mmHg 93%
    21:00 +9°C° 0.1 mm 6 mps 762 mmHg 93%
    22:00 +9°C° 0.1 mm 6 mps 762 mmHg 93%
    23:00 +9°C° 0.1 mm 6 mps 763 mmHg 93%

    17 December, Monday

    Time Temperature Precipitation Wind Pressure Humidity
    00:00 +9°C° 0.1 mm 6 mps 763 mmHg 92%
    01:00 +8°C° 0.1 mm 6 mps 763 mmHg 92%
    02:00 +8°C° 0.1 mm 6 mps 763 mmHg 92%
    03:00 +8°C° 0.1 mm 6 mps 763 mmHg 92%
    04:00 +8°C° 0.1 mm 6 mps 763 mmHg 92%
    05:00 +8°C° 0.1 mm 6 mps 763 mmHg 91%
    06:00 +8°C° 0.1 mm 6 mps 763 mmHg 91%
    07:00 +8°C° 0.1 mm 6 mps 764 mmHg 91%
    08:00 +7°C° 0.1 mm 6 mps 764 mmHg 91%
    09:00 +7°C° 0.1 mm 6 mps 764 mmHg 90%
    10:00 +7°C° 0.1 mm 6 mps 764 mmHg 90%
    11:00 +7°C° 0.1 mm 6 mps 765 mmHg 89%
    12:00 +7°C° 0.1 mm 6 mps 764 mmHg 88%
    13:00 +7°C° 0.1 mm 5 mps 764 mmHg 87%
    14:00 +7°C° 0.1 mm 5 mps 764 mmHg 86%
    15:00 +7°C° 0.1 mm 5 mps 764 mmHg 87%
    16:00 +7°C° 0.1 mm 5 mps 764 mmHg 88%
    17:00 +7°C° 0.1 mm 5 mps 764 mmHg 89%
    18:00 +7°C° 0 mm 5 mps 765 mmHg 89%
    19:00 +6°C° 0 mm 5 mps 765 mmHg 90%
    20:00 +6°C° 0 mm 5 mps 765 mmHg 90%
    21:00 +6°C° 0 mm 5 mps 765 mmHg 90%
    22:00 +6°C° 0 mm 4 mps 765 mmHg 91%
    23:00 +6°C° 0 mm 4 mps 765 mmHg 91%

    18 December, Tuesday

    Time Temperature Precipitation Wind Pressure Humidity
    00:00 +6°C° 0.1 mm 4 mps 766 mmHg 91%
    01:00 +7°C° 0.1 mm 3 mps 766 mmHg 92%
    02:00 +7°C° 0.1 mm 3 mps 766 mmHg 92%
    03:00 +5°C° 0.1 mm 3 mps 766 mmHg 93%
    04:00 +5°C° 0.1 mm 3 mps 766 mmHg 93%
    05:00 +5°C° 0.1 mm 3 mps 766 mmHg 93%
    06:00 +5°C° 0.1 mm 4 mps 766 mmHg 93%
    07:00 +5°C° 0.1 mm 4 mps 766 mmHg 93%
    08:00 +5°C° 0.1 mm 4 mps 766 mmHg 92%
    09:00 +5°C° 0.1 mm 4 mps 767 mmHg 90%
    10:00 +6°C° 0.1 mm 4 mps 767 mmHg 88%
    11:00 +6°C° 0.1 mm 5 mps 767 mmHg 86%
    12:00 +6°C° 0.1 mm 5 mps 767 mmHg 85%
    13:00 +6°C° 0.1 mm 5 mps 767 mmHg 84%
    14:00 +6°C° 0.1 mm 5 mps 767 mmHg 82%
    15:00 +6°C° 0.1 mm 5 mps 767 mmHg 84%
    16:00 +5°C° 0.1 mm 5 mps 767 mmHg 85%
    17:00 +5°C° 0.1 mm 5 mps 767 mmHg 86%
    18:00 +4°C° 0.1 mm 6 mps 768 mmHg 86%
    19:00 +4°C° 0.1 mm 6 mps 768 mmHg 86%
    20:00 +3°C° 0.1 mm 6 mps 768 mmHg 87%
    21:00 +3°C° 0 mm 6 mps 768 mmHg 87%
    22:00 +3°C° 0 mm 6 mps 768 mmHg 88%
    23:00 +2°C° 0 mm 7 mps 769 mmHg 88%
    Show more